Probability
42 48 42 32 23 26 16 19 16 23 16 19 13 16 19 35 10 16 13 6 0 0 0 0 0 0 0 0 0 3 3 3 3 0 0 3 3 3
55 39 45 29 35 26 26 23 19 19 29 10 16 6 26 0 0 10 13 6 0 0 0 0 0 0 0 0 0 0 0 0 0 0 0 0 0 0
29 29 42 39 32 29 23 26 19 29 23 6 23 13 16 13 6 19 13 13 6 0 0 0 0 0 0 0 0 0 0 0 0 0 0 0 0 0
16 16 13 19 29 29 35 23 16 23 16 13 16 6 6 6 6 13 6 0 0 0 0 0 0 0 0 0 0 0 0 0 0 0 0 0 0 0
16 16 13 16 23 19 23 23 13 10 16 13 13 16 6 3 3 3 0 6 0 0 0 0 0 0 0 0 0 0 0 0 0 0 0 0 0 0
23 26 19 16 23 16 16 26 19 23 19 13 13 6 6 6 10 3 0 3 0 0 0 0 0 0 0 0 0 0 0 0 0 0 0 0 0 0
26 26 23 6 6 6 3 19 16 6 3 3 3 6 6 6 0 0 0 0 0 0 3 0 0 0 0 0 0 0 0 0 0 0 0 0 0 0
26 16 13 6 3 0 0 0 0 0 0 0 0 3 3 3 0 0 0 3 3 0 0 3 0 0 0 0 0 0 0 0 0 0 0 0 0 0
13 16 10 3 3 3 0 0 0 0 0 0 0 3 6 6 6 3 3 3 0 0 6 3 0 0 0 0 0 0 0 0 0 0 0 0 0 0
6 6 6 6 3 6 6 3 3 0 0 0 0 3 3 6 10 6 0 0 3 3 0 0 3 0 0 0 0 0 0 0 0 0 0 0 0 0
3 3 3 6 6 0 3 6 6 6 0 0 0 0 0 0 3 3 0 0 0 3 0 0 0 0 0 0 0 0 0 0 0 0 0 0 0 0
3 3 0 0 0 0 0 3 3 6 6 0 0 0 0 0 0 3 3 0 0 0 0 0 0 0 0 0 0 0 0 0 0 0 0 0 0 0
3 3 3 0 0 0 0 3 3 3 6 0 0 3 3 0 0 0 0 0 0 0 0 0 0 0 0 0 0 0 0 0 0 0 0 0 0 0
3 3 3 0 0 0 0 0 0 0 0 0 0 0 0 0 0 0 0 0 0 0 0 0 0 0 0 0 0 0 0 0 0 0 0 0 0 0
3 3 0 0 0 0 0 0 0 0 0 0 0 0 0 0 0 0 0 0 0 0 0 0 0 0 0 0 0 0 0 0 0 0 0 0 0 0
0 0 0 0 0 0 0 0 0 0 0 0 0 0 0 0 0 0 0 0 0 0 0 0 0 0 0 0 0 0 0 0 0 0 0 0 0 0
0 0 0 0 0 0 0 0 0 0 0 0 0 0 0 0 0 0 0 0 0 0 0 0 0 0 0 0 0 0 0 0 0 0 0 0 0 0
0 0 0 0 0 0 0 0 0 0 0 0 0 0 0 0 0 0 0 0 0 0 0 0 0 0 0 0 0 0 0 0 0 0 0 0 0 0
0 0 0 0 0 0 0 0 0 0 0 0 0 0 0 0 0 0 0 0 0 0 0 0 0 0 0 0 0 0 0 0 0 0 0 0 0 0
0 0 0 0 0 0 0 0 0 0 0 0 0 0 0 0 0 0 0 0 0 0 0 0 0 0 0 0 0 0 0 0 0 0 0 0 0 0
0 0 0 0 0 0 0 0 0 0 0 0 0 0 0 0 0 0 0 0 0 0 0 0 0 0 0 0 0 0 0 0 0 0 0 0 0 0
0 0 0 0 0 0 0 0 0 0 0 0 0 0 0 0 0 0 0 0 0 0 0 0 0 0 0 0 0 0 0 0 0 0 0 0 0 0
0 0 0 0 0 0 0 0 0 0 0 0 0 0 0 0 0 0 0 0 0 0 0 0 0 0 0 0 0 0 0 0 0 0 0 0 0 0
Height
5891 5891 5890 5890 5890 5889 5889 5888 5888 5887 5886 5884 5883 5882 5881 5880 5878 5877 5876 5875 5873 5872 5870 5869 5867 5866 5864 5863 5861 5860 5858 5857 5855 5853 5852 5850 5849 5847
5887 5886 5886 5885 5885 5884 5883 5882 5882 5881 5880 5879 5877 5876 5875 5873 5872 5870 5869 5867 5866 5865 5863 5862 5860 5858 5857 5855 5854 5852 5850 5848 5846 5845 5843 5841 5839 5838
5882 5881 5881 5880 5879 5878 5877 5877 5876 5875 5874 5872 5871 5869 5868 5867 5865 5863 5862 5860 5858 5857 5855 5853 5852 5850 5848 5846 5844 5842 5840 5838 5836 5835 5833 5831 5829 5827
5877 5877 5876 5874 5873 5872 5871 5870 5869 5868 5867 5866 5864 5862 5861 5859 5857 5855 5854 5852 5850 5848 5846 5844 5843 5841 5839 5837 5835 5832 5830 5828 5826 5824 5822 5820 5818 5815
5872 5871 5870 5869 5868 5866 5865 5864 5863 5861 5860 5858 5857 5855 5853 5851 5849 5847 5845 5843 5842 5839 5837 5835 5833 5831 5829 5827 5824 5822 5819 5817 5815 5812 5810 5808 5805 5803
5867 5866 5865 5864 5862 5860 5859 5857 5856 5855 5853 5851 5849 5848 5846 5844 5841 5839 5837 5835 5832 5830 5828 5825 5823 5821 5819 5816 5813 5811 5808 5805 5803 5800 5798 5796 5793 5791
5862 5860 5859 5857 5856 5854 5853 5851 5849 5847 5846 5844 5842 5840 5838 5836 5833 5831 5828 5826 5823 5821 5818 5816 5813 5811 5808 5805 5802 5800 5797 5794 5792 5789 5786 5784 5781 5779
5856 5854 5853 5851 5849 5848 5846 5844 5842 5840 5838 5836 5834 5832 5830 5827 5825 5822 5819 5817 5815 5812 5809 5806 5803 5800 5797 5794 5791 5788 5785 5783 5780 5777 5774 5772 5769 5766
5849 5848 5846 5844 5842 5840 5838 5836 5834 5832 5831 5828 5826 5824 5821 5819 5816 5813 5810 5807 5805 5802 5798 5795 5792 5789 5786 5783 5780 5777 5774 5771 5768 5765 5762 5759 5755 5752
5842 5841 5839 5837 5835 5833 5831 5829 5827 5824 5822 5820 5818 5815 5813 5810 5807 5804 5801 5797 5794 5791 5788 5785 5782 5778 5775 5772 5769 5766 5762 5759 5755 5752 5749 5745 5742 5739
5835 5833 5831 5830 5827 5825 5823 5821 5818 5816 5813 5811 5809 5806 5803 5800 5797 5794 5791 5787 5784 5781 5777 5774 5771 5767 5764 5760 5757 5753 5750 5746 5743 5739 5736 5732 5728 5725
5828 5826 5824 5822 5820 5817 5815 5812 5810 5807 5805 5802 5799 5796 5793 5790 5787 5784 5781 5777 5774 5770 5767 5763 5760 5756 5752 5749 5745 5741 5737 5734 5730 5726 5722 5719 5715 5711
5820 5818 5816 5814 5812 5809 5807 5804 5801 5799 5796 5793 5790 5787 5784 5781 5777 5774 5770 5767 5763 5760 5756 5752 5748 5744 5741 5737 5733 5729 5725 5721 5717 5713 5710 5707 5703 5699
5813 5810 5808 5806 5803 5801 5798 5795 5792 5790 5787 5783 5780 5777 5774 5771 5767 5764 5760 5756 5753 5749 5745 5741 5737 5733 5729 5725 5721 5717 5712 5708 5704 5701 5697 5694 5691 5687
5805 5802 5800 5797 5795 5792 5789 5786 5783 5780 5777 5774 5770 5767 5764 5760 5756 5753 5749 5746 5742 5738 5734 5730 5726 5722 5718 5713 5709 5705 5701 5696 5692 5689 5685 5682 5678 5675
5796 5793 5791 5789 5786 5783 5780 5777 5774 5771 5767 5764 5761 5757 5754 5750 5747 5743 5739 5736 5732 5728 5724 5720 5715 5711 5707 5702 5698 5694 5690 5685 5681 5678 5674 5670 5667 5663
5788 5785 5783 5780 5777 5774 5771 5768 5764 5761 5758 5755 5751 5748 5744 5741 5737 5734 5730 5726 5722 5718 5714 5710 5705 5701 5697 5693 5688 5684 5679 5675 5671 5667 5664 5660 5656 5652
5780 5777 5774 5771 5768 5765 5762 5758 5755 5752 5748 5745 5742 5739 5735 5732 5728 5724 5721 5717 5713 5709 5705 5700 5696 5691 5687 5683 5679 5674 5670 5666 5662 5658 5655 5651 5647 5643
5771 5769 5766 5763 5760 5756 5753 5749 5746 5742 5739 5736 5733 5730 5726 5723 5719 5715 5712 5708 5704 5700 5695 5691 5687 5682 5678 5674 5670 5666 5662 5658 5654 5650 5646 5642 5638 5634
5763 5760 5757 5754 5751 5747 5744 5740 5737 5734 5731 5727 5724 5721 5718 5714 5710 5707 5703 5699 5695 5691 5687 5682 5678 5674 5670 5666 5662 5658 5654 5650 5646 5642 5638 5633 5629 5625
5754 5752 5749 5746 5742 5739 5735 5732 5729 5725 5722 5719 5716 5712 5709 5705 5702 5698 5694 5690 5686 5682 5678 5674 5670 5666 5662 5658 5654 5650 5646 5642 5638 5634 5630 5626 5622 5618
5746 5743 5740 5737 5734 5730 5727 5724 5720 5717 5714 5710 5707 5704 5700 5697 5693 5689 5686 5682 5678 5674 5670 5666 5662 5658 5655 5651 5647 5643 5639 5635 5631 5627 5623 5619 5614 5610
5737 5735 5732 5728 5725 5722 5719 5715 5712 5709 5705 5702 5699 5695 5692 5689 5685 5682 5678 5674 5671 5667 5663 5659 5655 5651 5647 5644 5640 5636 5632 5628 5624 5620 5617 5612 5608 5604
Wind_Speed
17 17 18 19 20 20 20 20 21 22 22 23 23 23 24 24 25 25 26 26 26 27 27 27 27 28 28 28 29 30 31 31 31 32 32 33 33 34
18 19 19 20 21 22 22 23 24 24 25 25 26 26 26 26 27 27 28 28 28 29 29 29 29 30 31 31 32 33 33 33 34 34 35 36 37 37
19 20 20 21 21 22 22 24 24 26 26 26 27 27 27 28 29 29 29 30 30 31 31 32 32 32 33 34 34 35 35 36 36 37 38 39 40 40
20 20 21 22 22 22 24 24 25 25 26 26 27 28 29 30 31 31 32 32 32 32 33 34 34 35 36 37 37 37 38 38 39 40 40 41 42 42
20 21 21 22 23 23 25 25 25 26 27 28 28 29 31 31 32 33 34 34 35 35 35 36 36 37 37 38 39 40 40 40 41 41 42 43 43 43
21 22 22 23 24 24 25 26 27 28 28 29 30 30 31 31 32 33 33 35 36 36 36 37 38 38 38 39 40 40 41 41 41 42 43 43 44 44
22 22 23 24 24 25 26 27 27 28 28 29 30 31 31 32 32 33 34 35 36 36 36 37 37 38 39 39 40 41 41 41 41 41 42 43 44 44
23 24 25 25 26 27 28 28 28 28 28 29 30 31 32 32 33 34 35 35 35 36 37 38 38 38 39 40 40 41 42 42 42 43 43 44 45 46
24 25 26 27 27 28 28 28 29 29 30 31 31 32 32 33 34 35 35 35 36 37 38 39 39 40 40 41 42 43 43 43 43 44 44 45 46 46
25 26 26 27 28 28 29 30 30 30 30 31 32 33 33 34 34 35 35 36 36 37 37 38 39 39 40 40 41 42 43 44 44 44 45 45 46 46
27 27 27 28 29 29 30 30 30 31 31 32 34 34 34 35 35 36 36 37 37 37 37 38 39 40 40 41 42 42 43 44 44 45 45 45 46 45
28 28 29 30 30 30 31 31 31 31 32 32 33 34 34 34 34 35 36 37 37 37 37 38 39 40 41 42 42 43 43 43 44 44 44 44 44 44
29 30 31 31 31 31 32 32 32 32 32 32 33 34 35 35 36 36 37 37 38 38 38 39 39 40 40 41 41 42 42 43 43 43 42 42 41 42
31 31 31 31 32 32 32 32 32 33 33 33 34 35 35 36 36 36 37 37 38 38 39 39 39 40 41 41 41 41 41 41 41 41 41 40 40 40
31 31 31 31 32 32 32 33 33 33 34 35 35 35 35 35 35 35 36 36 37 38 38 38 38 39 40 40 40 40 40 39 39 39 39 39 39 39
32 31 31 31 32 32 33 34 34 34 35 34 34 34 35 34 34 34 35 36 36 36 37 37 37 37 38 38 38 38 37 37 37 37 37 37 37 36
31 31 31 32 32 32 33 33 34 34 34 33 33 33 33 34 34 33 34 35 35 35 35 35 35 35 36 36 36 36 36 35 34 34 34 35 35 35
31 31 31 32 32 32 33 33 34 33 32 32 32 32 32 32 33 33 33 34 34 34 34 35 35 35 35 34 34 34 33 32 32 32 32 33 34 35
31 31 31 31 32 33 33 33 32 31 31 30 31 31 31 32 32 33 33 33 34 34 34 34 34 33 33 33 32 32 32 31 31 31 31 32 33 33
30 30 31 32 33 33 32 32 30 30 30 30 31 31 32 32 32 32 33 33 33 33 33 33 32 31 31 31 31 31 31 30 30 30 30 30 30 31
30 31 32 32 32 31 31 30 30 30 31 31 31 31 32 32 32 32 32 32 32 32 32 31 31 31 30 30 30 30 29 29 29 29 29 29 29 29
30 30 30 30 30 30 30 30 30 30 31 31 31 31 31 31 31 31 31 31 30 30 30 30 29 29 29 29 28 28 28 28 27 27 26 26 27 27
29 30 30 30 29 30 29 29 29 29 29 29 30 30 30 30 30 30 29 29 29 28 28 28 27 27 27 27 27 27 27 27 26 26 26 26 26 26
Wind_Direction
263 266 269 269 270 269 270 271 274 276 276 277 278 279 281 281 281 281 281 281 281 283 283 283 283 284 285 285 285 285 285 285 284 284 283 283 281 281
270 272 274 274 274 273 271 272 274 277 278 278 279 280 281 282 284 283 282 283 282 282 282 283 283 283 284 285 286 285 285 284 284 284 283 282 282 282
274 275 277 278 277 275 275 275 276 279 278 278 278 278 281 282 284 285 285 285 284 283 283 282 282 283 284 285 286 285 284 283 283 282 282 282 281 281
276 278 279 279 279 278 278 277 277 280 281 281 279 279 282 283 284 285 284 284 284 284 285 284 284 284 284 285 284 284 283 283 283 282 282 282 281 281
276 277 279 281 281 281 280 280 280 281 282 282 281 281 282 283 283 284 284 285 285 285 285 285 285 284 285 285 284 284 284 284 283 283 282 282 282 282
278 279 281 282 283 283 283 284 282 283 283 282 282 283 283 284 285 286 286 286 285 285 286 286 286 285 286 287 286 286 285 284 284 284 283 281 282 283
280 282 282 283 283 284 285 286 286 285 285 285 284 284 284 286 287 288 289 288 287 287 288 288 287 287 286 287 286 286 286 286 286 286 285 284 284 285
282 283 284 283 283 284 286 286 286 285 284 285 285 285 286 286 287 289 289 288 289 291 291 291 290 289 289 289 288 288 287 287 286 286 286 285 285 284
283 284 284 284 284 284 285 285 285 284 282 283 285 285 286 287 288 289 289 289 291 290 290 289 289 290 290 290 290 290 290 289 289 288 288 288 287 286
284 285 286 287 287 286 286 286 286 286 285 285 286 287 288 289 291 290 290 290 290 290 290 290 290 290 290 291 291 291 290 290 290 289 289 289 289 288
284 286 288 288 286 287 288 288 287 287 288 288 287 288 289 288 290 291 291 291 291 291 291 292 291 291 291 292 292 292 291 290 290 290 290 290 290 290
287 288 289 289 289 289 290 289 288 288 288 289 289 289 291 291 293 294 294 293 293 293 293 294 293 293 293 293 293 292 292 292 292 293 292 292 291 290
287 288 289 289 289 289 289 290 290 290 289 289 291 292 293 293 293 294 294 294 294 294 295 295 295 295 295 296 295 294 294 294 293 293 292 291 291 291
290 289 289 289 290 291 292 291 290 290 291 291 292 294 295 294 294 294 295 295 296 297 297 296 296 296 297 297 297 296 295 295 294 294 293 292 292 291
291 290 291 290 291 291 292 293 294 294 293 293 294 295 296 296 297 297 297 297 297 297 297 296 296 297 298 298 298 297 297 296 296 295 294 293 293 293
292 293 293 292 292 292 292 293 294 295 295 294 295 297 298 298 298 298 298 299 299 298 298 298 298 300 300 300 299 299 300 299 297 296 295 295 295 294
292 293 294 294 294 294 294 294 296 296 296 296 297 298 299 299 298 299 300 301 302 302 301 301 301 302 303 302 302 301 301 301 300 298 298 298 297 297
292 293 294 295 295 295 296 296 296 295 296 296 297 298 298 299 299 300 301 302 303 303 303 304 304 304 304 304 304 304 303 303 302 301 301 301 301 301
292 293 294 295 295 296 297 297 297 297 296 296 297 298 298 299 300 300 301 302 303 304 305 305 306 306 306 307 307 306 305 304 304 303 303 303 303 304
292 293 294 296 297 297 296 297 297 297 297 297 297 298 300 301 302 302 302 303 304 304 305 306 307 307 308 308 308 307 306 305 305 305 305 306 306 307
293 294 296 297 298 297 297 297 297 297 297 297 298 300 301 302 303 304 304 304 305 305 306 307 308 308 308 308 308 308 307 307 308 308 308 308 309 309
295 295 296 297 298 299 299 298 299 299 299 300 301 302 302 303 304 305 305 306 307 307 308 308 309 309 309 310 310 310 310 311 311 311 311 311 311 312
296 296 296 297 299 300 300 300 301 301 301 302 302 303 304 304 305 306 306 307 308 309 310 310 310 310 311 312 312 313 313 313 314 314 314 314 314 315